Starlink 5550

operational
NORAD ID: 56361 Int'l Des: 2023-058 Owner: SPXS Country: US Constellation: starlink
LEOCIRCULARRETROGRADESSO

Starlink 5550について

説明を読み込み中...

リアルタイム位置

3D地球を読み込み中...

次回通過

高度履歴

Altitude vs Time

uPlot chart will show altitude changes over time

軌道要素

1 56361U 23058AW 26063.01716487 .00000939 00000-0 77647-4 0 9996
2 56361 97.6056 64.7258 0001812 90.7981 269.3451 15.01260807157287
Epoch: Mar 4, 2026 • Age: 21 hours

現在のステータス

高度 566.2 km
速度 7.58 km/s
衛星直下点 30.22°N, 61.64°W
打ち上げ日 Apr 27, 2023
運用期間 2.8 years
タイプ internet

技術仕様

分類 Payload
質量 300.00 kg
乾燥質量 260.00 kg
総質量 300.00 kg
長さ 0.20 m
直径 2.80 m
スパン 9.00 m
形状 Box + pan
製造者 SPXS
バスタイプ Starlink
フェーズステータス In Orbit
所有者/国 SPXS/US

大規模コンステレーション

Loading constellations...